Tracking 19286 objects as of 19-Nov-2018
HD Live streaming from Space Station
objects crossing your sky now

RADUGA 1-7

Track RADUGA 1-7 now!
RADUGA 1-7 is classified as:


NORAD ID: 28194
Int'l Code: 2004-010A
Perigee: 35,741.9 km
Apogee: 35,785.6 km
Inclination: 10.4 °
Period: 1,434.6 minutes
Semi major axis: 42134 km
RCS: 12.5893 m2 (large)
Launch date: March 27, 2004
Source: Commonwealth of Independent States (former USSR) (CIS)
Launch site: TYURATAM MISSILE AND SPACE COMPLEX (TTMTR)

Military communication.
aabbcc
Your satellite tracking list
Your tracking list is empty




NASA's NSSDC Master Catalog

Two Line Element Set (TLE):
1 28194U 04010A   18322.76544227 -.00000037 +00000-0 +00000-0 0  9993
2 28194 010.4117 041.5811 0005190 234.1814 124.3867 01.00378848053657
Source of the keplerian elements: AFSPC